Weather History for Roxboro, NC

Change the Weather History Date:

Saturday, October 13, 2012

  Actual Average Record
Temperature  
Mean Temperature 50 °F -  
Max Temperature 62 °F 71 °F 84 °F (2000)
Min Temperature 37 °F 45 °F 25 °F (1988)
Degree Days  
Heating Degree Days 16    
Moisture  
Dew Point 41 °F    
Average Humidity 76    
Maximum Humidity 100    
Minimum Humidity 45    
Precipitation  
Precipitation 0.00 in - - ()
Sea Level Pressure  
Sea Level Pressure 30.43 in    
Wind  
Wind Speed 2 mph (East)    
Max Wind Speed 8 mph    
Max Gust Speed -    
Visibility 10 miles    
Events      
Averages and records for this station are not official NWS values.
T = Trace of Precipitation, MM = Missing Value Source: NWS Daily Summary

Daily Weather History Graph

Daily Weather History Graph

Search for Another Location

Airport:

Trip Planner

Search our weather history database for the weather conditions in past years. The results will help you decide how hot, cold, wet, or windy it might be!

Date:

Astronomy

Oct. 13, 2012 Rise Set
Actual Time 7:21 AM EDT 6:41 PM EDT
Civil Twilight 6:55 AM EDT 7:07 PM EDT
Nautical Twilight 6:25 AM EDT 7:37 PM EDT
Astronomical Twilight 5:56 AM EDT 8:07 PM EDT
Moon 5:12 AM EDT (10/13) 5:22 PM EDT (10/13)
Length of Visible Light 12h 12m
Length of Day
11h 20m
Waning Crescent, 5% of the Moon is Illuminated
Oct 13
Waning Crescent
Oct 15
New
Oct 21
First Quarter
Oct 29
Full
Nov 6
Last Quarter

Hourly Weather History & Observations

Time (EDT) Temp. Windchill Dew Point Humidity Pressure Visibility Wind Dir Wind Speed Gust Speed Precip Events Conditions
1:35 AM 48.2 °F - 37.4 °F 66% 30.42 in 10.0 mi NE 4.6 mph - N/A   Clear
1:55 AM 46.4 °F 44.3 °F 37.4 °F 71% 30.42 in 10.0 mi NE 4.6 mph - N/A   Clear
2:15 AM 44.6 °F 42.2 °F 37.4 °F 76% 30.42 in 10.0 mi NE 4.6 mph - N/A   Clear
2:35 AM 44.6 °F - 37.4 °F 76% 30.42 in 10.0 mi Calm Calm - N/A   Clear
2:55 AM 42.8 °F - 37.4 °F 81% 30.42 in 10.0 mi Calm Calm - N/A   Clear
3:15 AM 42.8 °F - 37.4 °F 81% 30.42 in 10.0 mi Calm Calm - N/A   Clear
3:35 AM 42.8 °F - 37.4 °F 81% 30.42 in 10.0 mi Calm Calm - N/A   Clear
3:55 AM 41.0 °F - 37.4 °F 87% 30.42 in 10.0 mi Calm Calm - N/A   Clear
4:15 AM 39.2 °F - 37.4 °F 93% 30.42 in 10.0 mi Calm Calm - N/A   Clear
4:35 AM 39.2 °F - 39.2 °F 100% 30.43 in 10.0 mi Calm Calm - N/A   Clear
4:55 AM 37.4 °F - 37.4 °F 100% 30.43 in 10.0 mi Calm Calm - N/A   Clear
5:15 AM 37.4 °F - 37.4 °F 100% 30.43 in 10.0 mi Calm Calm - N/A   Clear
5:35 AM 37.4 °F - 37.4 °F 100% 30.44 in 10.0 mi Calm Calm - N/A   Clear
5:55 AM 37.4 °F - 37.4 °F 100% 30.45 in 10.0 mi Calm Calm - N/A   Clear
6:15 AM 37.4 °F - 37.4 °F 100% 30.45 in 10.0 mi Calm Calm - N/A   Clear
6:55 AM 37.4 °F - 37.4 °F 100% 30.47 in 10.0 mi Calm Calm - N/A   Clear
7:15 AM 37.4 °F - 37.4 °F 100% 30.47 in 10.0 mi Calm Calm - N/A   Clear
7:35 AM 37.4 °F - 37.4 °F 100% 30.48 in 10.0 mi Calm Calm - N/A   Clear
7:55 AM 39.2 °F - 39.2 °F 100% 30.49 in 10.0 mi Calm Calm - N/A   Clear
8:15 AM 42.8 °F 40.1 °F 37.4 °F 81% 30.50 in 10.0 mi North 4.6 mph - N/A   Clear
8:35 AM 44.6 °F 43.1 °F 39.2 °F 81% 30.50 in 10.0 mi North 3.5 mph - N/A   Clear
8:55 AM 46.4 °F 43.5 °F 39.2 °F 76% 30.51 in 10.0 mi ENE 5.8 mph - N/A   Clear
9:15 AM 48.2 °F - 39.2 °F 71% 30.50 in 10.0 mi ENE 8.1 mph - N/A   Clear
9:35 AM 50.0 °F - 39.2 °F 66% 30.50 in 10.0 mi ENE 6.9 mph - N/A   Clear
9:55 AM 51.8 °F - 39.2 °F 62% 30.50 in 10.0 mi ENE 6.9 mph - N/A   Clear
10:15 AM 51.8 °F - 41.0 °F 67% 30.51 in 10.0 mi ENE 5.8 mph - N/A   Clear
10:35 AM 53.6 °F - 37.4 °F 54% 30.50 in 10.0 mi East 4.6 mph - N/A   Clear
10:55 AM 53.6 °F - 39.2 °F 58% 30.50 in 10.0 mi ESE 4.6 mph - N/A   Clear
11:15 AM 55.4 °F - 39.2 °F 54% 30.50 in 10.0 mi ENE 6.9 mph - N/A   Clear
11:35 AM 55.4 °F - 41.0 °F 58% 30.50 in 10.0 mi East 5.8 mph - N/A   Clear
11:55 AM 57.2 °F - 41.0 °F 55% 30.50 in 10.0 mi East 6.9 mph - N/A   Clear
12:15 PM 57.2 °F - 39.2 °F 51% 30.49 in 10.0 mi ENE 6.9 mph - N/A   Clear
12:35 PM 57.2 °F - 39.2 °F 51% 30.49 in 10.0 mi Calm Calm - N/A   Clear
12:55 PM 59.0 °F - 39.2 °F 48% 30.48 in 10.0 mi ESE 3.5 mph - N/A   Clear
1:15 PM 59.0 °F - 41.0 °F 51% 30.47 in 10.0 mi Calm Calm - N/A   Clear
1:35 PM 60.8 °F - 41.0 °F 48% 30.45 in 10.0 mi ESE 4.6 mph - N/A   Clear
1:55 PM 60.8 °F - 41.0 °F 48% 30.44 in 10.0 mi SSW 5.8 mph - N/A   Clear
2:15 PM 60.8 °F - 41.0 °F 48% 30.42 in 10.0 mi Calm Calm - N/A   Clear
2:35 PM 60.8 °F - 41.0 °F 48% 30.42 in 10.0 mi Calm Calm - N/A   Clear
2:55 PM 60.8 °F - 41.0 °F 48% 30.41 in 10.0 mi SSE 5.8 mph - N/A   Clear
3:15 PM 62.6 °F - 41.0 °F 45% 30.41 in 10.0 mi SW 3.5 mph - N/A   Clear
3:35 PM 62.6 °F - 42.8 °F 48% 30.40 in 10.0 mi Calm Calm - N/A   Clear
3:55 PM 62.6 °F - 42.8 °F 48% 30.40 in 10.0 mi South 4.6 mph - N/A   Clear
4:35 PM 62.6 °F - 42.8 °F 48% 30.38 in 10.0 mi Calm Calm - N/A   Clear
4:55 PM 62.6 °F - 42.8 °F 48% 30.38 in 10.0 mi South 4.6 mph - N/A   Clear
5:15 PM 62.6 °F - 42.8 °F 48% 30.38 in 10.0 mi South 3.5 mph - N/A   Clear
5:35 PM 60.8 °F - 42.8 °F 52% 30.38 in 10.0 mi SE 4.6 mph - N/A   Clear
5:55 PM 60.8 °F - 44.6 °F 55% 30.38 in 10.0 mi ESE 4.6 mph - N/A   Clear
6:15 PM 59.0 °F - 44.6 °F 59% 30.37 in 10.0 mi Calm Calm - N/A   Clear
6:35 PM 57.2 °F - 46.4 °F 67% 30.38 in 10.0 mi Calm Calm - N/A   Clear
6:55 PM 53.6 °F - 46.4 °F 77% 30.38 in 10.0 mi Calm Calm - N/A   Clear
7:15 PM 50.0 °F - 46.4 °F 87% 30.37 in 10.0 mi SE 3.5 mph - N/A   Clear
7:35 PM 50.0 °F - 46.4 °F 87% 30.37 in 10.0 mi Calm Calm - N/A   Clear
7:55 PM 50.0 °F - 48.2 °F 94% 30.38 in 10.0 mi Calm Calm - N/A   Clear
8:15 PM 48.2 °F - 48.2 °F 100% 30.38 in 10.0 mi Calm Calm - N/A   Clear
8:35 PM 48.2 °F - 46.4 °F 93% 30.38 in 10.0 mi Calm Calm - N/A   Clear
8:55 PM 46.4 °F - 46.4 °F 100% 30.39 in 10.0 mi Calm Calm - N/A   Clear
9:15 PM 46.4 °F - 46.4 °F 100% 30.39 in 10.0 mi Calm Calm - N/A   Clear
9:35 PM 44.6 °F - 44.6 °F 100% 30.38 in 10.0 mi Calm Calm - N/A   Clear
9:55 PM 44.6 °F - 44.6 °F 100% 30.38 in 10.0 mi Calm Calm - N/A   Clear
10:15 PM 44.6 °F - 44.6 °F 100% 30.38 in 7.0 mi Calm Calm - N/A   Clear
10:35 PM 44.6 °F - 44.6 °F 100% 30.38 in 7.0 mi Calm Calm - N/A   Clear
10:55 PM 42.8 °F - 42.8 °F 100% 30.38 in 7.0 mi Calm Calm - N/A   Clear
11:15 PM 42.8 °F - 42.8 °F 100% 30.37 in 5.0 mi Calm Calm - N/A   Clear
11:35 PM 42.8 °F - 42.8 °F 100% 30.36 in 7.0 mi Calm Calm - N/A   Clear
11:55 PM 42.8 °F - 42.8 °F 100% 30.36 in 3.0 mi Calm Calm - N/A   Clear